Location: Carri�res
(48.9069°N, 2.1792°E)
Time: 05:21:08
(UTC+00:00)

SeaSat 1 - Pass Details

Date: 11 May 2021
Orbit: 744 x 747 km, 108.0° (Epoch: 12 June)

Event Time Altitude Azimuth Distance (km) Brightness Sun altitude
Rises 23:02:18 0° 40° (NE) 3,201 6.3 -22.2°
Reaches altitude 10° 23:05:06 10° 56° (NE) 2,272 5.2 -22.3°
Enters shadow 23:08:33 21° 101° (E) 1,626 4.0 -22.4°
